• MPC Preparation (Info)

  • MPEC 2001-X51 : 2001 XX10

    The following Minor Planet Electronic Circular may be linked-to from your own Web pages, but must not otherwise be redistributed electronically.

    A form allowing access to any MPEC is at the bottom of this page.


    Read MPEC 2001-X50 Read MPEC 2001-X52


    M.P.E.C. 2001-X51                                Issued 2001 Dec. 13, 22:34 UT
    
         The Minor Planet Electronic Circulars contain information on unusual
             minor planets and routine data on comets.  They are published
       on behalf of Commission 20 of the International Astronomical Union by the
              Minor Planet Center, Smithsonian Astrophysical Observatory,
                              Cambridge, MA 02138, U.S.A.
    
                 Prepared using the Tamkin Foundation Computer Network
    
                                  MPC@CFA.HARVARD.EDU
              URL http://cfa-www.harvard.edu/iau/mpc.html  ISSN 1523-6714
    
                                       2001 XX10
    
    Observations:
         K01X10X* C2001 12 11.37465 06 40 35.92 +17 51 18.2          18.3        704
         K01X10X  C2001 12 11.38991 06 40 33.66 +17 52 10.2          18.7        704
         K01X10X  C2001 12 11.40528 06 40 31.54 +17 53 01.6          18.5        704
         K01X10X  C2001 12 11.42064 06 40 29.28 +17 53 53.6          18.4        704
         K01X10X  C2001 12 12.02903 06 39 05.12 +18 28 18.5          18.3 R      966
         K01X10X  C2001 12 12.09212 06 38 55.91 +18 31 53.6                      966
         K01X10X  C2001 12 13.27240 06 36 06.00 +19 39 44.7          18.3        704
         K01X10X  C2001 12 13.28744 06 36 03.72 +19 40 37.6          18.4        704
         K01X10X  C2001 12 13.30250 06 36 01.38 +19 41 29.6          18.4        704
         K01X10X  C2001 12 13.33275 06 35 56.72 +19 43 14.5          18.0        704
         K01X10X  C2001 12 13.89666 06 34 32.85 +20 15 55.0                      611
         K01X10X  C2001 12 13.89972 06 34 32.51 +20 16 05.6                      611
         K01X10X  C2001 12 13.90167 06 34 32.15 +20 16 14.1                      611
    
    Observer details:
    611 Starkenburg.  Observers R. Stoss, M. Busch, E. Schwab, F. Hormuth.
        0.45-m f/4.4 reflector + CCD.
    704 Lincoln Laboratory ETS, New Mexico.  Observers M. Blythe, F. Shelly,
        M. Bezpalko, R. Huber, L. Manguso, S. Adams, J. Piscitelli.  Measurers
        J. Stuart, R. Sayer, J. B. Evans, H. Viggh.  1.0-m f/2.15 reflector + CCD.
    966 Church Stretton.  Observer S. P. Laurie.  0.25-m Schmidt-Cassegrain + CCD.
    
    Orbital elements:
    2001 XX10
    Epoch 2001 Nov. 27.0 TT = JDT 2452240.5                 MPC
    M 346.42985              (2000.0)            P               Q
    n   0.50613811     Peri.    3.64586     -0.03054793     -0.76466140
    a   1.5593970      Node    88.96070     +0.89999946     -0.30120056
    e   0.0260982      Incl.   40.07679     +0.43481927     +0.56971148
    P   1.95           H   18.2           G   0.15
    From 13 observations 2001 Dec. 11-13.
    
    Ephemeris:
    2001 XX10                a,e,i = 1.56, 0.03, 40                  q = 1.5187
    Date    TT    R. A. (2000) Decl.     Delta      r     Elong.  Phase     V
    2001 12 07    06 49.74   +13 54.2    0.579    1.519   151.4    18.1    18.9
    2001 12 17    06 26.32   +23 19.3    0.541    1.519   169.0     7.1    18.3
    2001 12 27    05 55.18   +33 06.2    0.542    1.519   168.5     7.4    18.3
    2002 01 06    05 21.13   +41 18.5    0.582    1.519   150.9    18.3    18.9
    2002 01 16    04 51.01   +47 05.8    0.653    1.520   135.5    27.0    19.4
    2002 01 26    04 30.11   +50 54.0    0.742    1.521   122.9    32.9    19.8
    2002 02 05    04 19.92   +53 29.8    0.840    1.522   112.6    36.7    20.2
    2002 02 15    04 19.71   +55 26.3    0.942    1.523   104.2    38.9    20.5
    2002 02 25    04 28.18   +57 01.8    1.042    1.525    97.3    40.1    20.8
    2002 03 07    04 44.03   +58 23.0    1.138    1.527    91.3    40.5    21.0
    2002 03 17    05 06.39   +59 30.1    1.228    1.530    86.3    40.5    21.2
    2002 03 27    05 34.55   +60 20.2    1.311    1.532    82.0    40.1    21.3
    2002 04 06    06 07.63   +60 47.8    1.385    1.535    78.3    39.7    21.4
    2002 04 16    06 44.64   +60 46.6    1.452    1.538    75.1    39.1    21.5
    2002 04 26    07 24.18   +60 11.1    1.512    1.541    72.4    38.5    21.6
    2002 05 06    08 04.60   +58 57.1    1.565    1.545    70.0    37.9    21.6
    2002 05 16    08 44.44   +57 03.1    1.612    1.548    67.9    37.2    21.7
    2002 05 26    09 22.51   +54 30.2    1.655    1.552    66.1    36.7    21.7
    
    Timothy B. Spahr             (C) Copyright 2001 MPC           M.P.E.C. 2001-X51
    

    Read MPEC 2001-X50 Read MPEC 2001-X52


    MPEC number:

    Enter an MPEC number in one of the following forms:

    • 1997-B01 (the full form)
    • J97B01 (the packed version of the full form)
    • B01 (the abbreviated form)